| time (UTC) | temp F | wind direction | speed MPH | gust MPH | rain 1hr in | rain 24hr in | rain mn in | humidity % | barometer mb |
| 20260831030509 | 57 | 207 | 6.0 | 11.0 | 0.00 | 0.00 | 0.24 | 79 | 1004.4 |
| 20260831030004 | 57 | 220 | 9.0 | 13.0 | 0.00 | 0.00 | 0.24 | 78 | 1004.5 |
| 20260831025459 | 57 | 207 | 7.0 | 10.0 | 0.00 | 0.00 | 0.24 | 78 | 1004.5 |
| 20260831024953 | 57 | 225 | 9.0 | 12.0 | 0.00 | 0.00 | 0.24 | 78 | 1004.5 |
| 20260831024448 | 57 | 220 | 10.0 | 15.0 | 0.00 | 0.00 | 0.24 | 78 | 1004.6 |
| 20260831023943 | 57 | 225 | 15.0 | 19.0 | 0.00 | 0.00 | 0.24 | 78 | 1004.5 |
| 20260831023438 | 57 | 189 | 9.0 | 15.0 | 0.00 | 0.00 | 0.24 | 77 | 1004.5 |
| 20260831022933 | 57 | 211 | 11.0 | 25.0 | 0.00 | 0.00 | 0.24 | 78 | 1004.4 |
| 20260831022427 | 58 | 229 | 14.0 | 17.0 | 0.00 | 0.00 | 0.24 | 78 | 1004.6 |
| 20260831021922 | 58 | 225 | 12.0 | 17.0 | 0.00 | 0.00 | 0.24 | 79 | 1004.5 |
| 20260831021417 | 58 | 225 | 11.0 | 27.0 | 0.00 | 0.00 | 0.24 | 79 | 1004.6 |
| 20260831020912 | 58 | 247 | 13.0 | 29.0 | 0.00 | 0.00 | 0.24 | 78 | 1004.5 |
| 20260831020407 | 58 | 225 | 13.0 | 20.0 | 0.00 | 0.00 | 0.24 | 79 | 1004.5 |
| 20260831015901 | 58 | 243 | 9.0 | 24.0 | 0.00 | 0.00 | 0.24 | 78 | 1004.5 |
| 20260831015356 | 58 | 225 | 8.0 | 13.0 | 0.00 | 0.00 | 0.24 | 78 | 1004.5 |
| 20260831014851 | 58 | 220 | 5.0 | 11.0 | 0.00 | 0.00 | 0.24 | 78 | 1004.4 |
| 20260831014346 | 58 | 229 | 7.0 | 17.0 | 0.00 | 0.00 | 0.24 | 78 | 1004.4 |
| 20260831013841 | 58 | 243 | 14.0 | 23.0 | 0.00 | 0.00 | 0.24 | 79 | 1004.3 |
| 20260831013335 | 58 | 261 | 18.0 | 18.0 | 0.00 | 0.00 | 0.24 | 78 | 1004.3 |
| 20260831012830 | 58 | 225 | 7.0 | 13.0 | 0.00 | 0.00 | 0.24 | 79 | 1004.4 |
| 20260831012325 | 57 | 247 | 14.0 | 36.0 | 0.00 | 0.00 | 0.24 | 79 | 1004.4 |
| 20260831011820 | 58 | 238 | 9.0 | 27.0 | 0.00 | 0.00 | 0.24 | 79 | 1004.4 |
| 20260831011315 | 58 | 234 | 21.0 | 25.0 | 0.00 | 0.00 | 0.24 | 79 | 1004.5 |
| 20260831010809 | 58 | 238 | 15.0 | 23.0 | 0.00 | 0.00 | 0.24 | 80 | 1004.4 |
| 20260831010304 | 58 | 229 | 13.0 | 23.0 | 0.00 | 0.00 | 0.24 | 80 | 1004.5 |
| 20260831005759 | 58 | 225 | 9.0 | 15.0 | 0.00 | 0.00 | 0.24 | 79 | 1004.5 |
| 20260831005254 | 58 | 225 | 8.0 | 15.0 | 0.00 | 0.00 | 0.24 | 79 | 1004.5 |
| 20260831004749 | 58 | 225 | 11.0 | 14.0 | 0.00 | 0.00 | 0.24 | 80 | 1004.5 |
| 20260831004243 | 58 | 229 | 19.0 | 29.0 | 0.00 | 0.00 | 0.24 | 79 | 1004.6 |
| 20260831003738 | 58 | 247 | 10.0 | 21.0 | 0.00 | 0.00 | 0.24 | 80 | 1004.6 |
| 20260831003233 | 58 | 243 | 11.0 | 13.0 | 0.00 | 0.00 | 0.24 | 80 | 1004.6 |
| 20260831002728 | 58 | 216 | 11.0 | 15.0 | 0.00 | 0.00 | 0.24 | 79 | 1004.6 |
| 20260831002223 | 58 | 220 | 9.0 | 22.0 | 0.00 | 0.00 | 0.24 | 80 | 1004.6 |
| 20260831001717 | 58 | 238 | 16.0 | 23.0 | 0.00 | 0.00 | 0.24 | 79 | 1004.5 |
| 20260831001212 | 58 | 225 | 8.0 | 18.0 | 0.00 | 0.00 | 0.24 | 80 | 1004.5 |
| 20260831000708 | 58 | 234 | 29.0 | 31.0 | 0.00 | 0.00 | 0.24 | 80 | 1004.5 |
| 20260831000203 | 58 | 225 | 12.0 | 14.0 | 0.00 | 0.00 | 0.24 | 80 | 1004.5 |
| 20260830235657 | 58 | 261 | 9.0 | 24.0 | 0.00 | 0.00 | 0.24 | 80 | 1004.5 |
| 20260830235151 | 58 | 234 | 8.0 | 20.0 | 0.00 | 0.00 | 0.24 | 80 | 1004.6 |
| 20260830234646 | 58 | 252 | 12.0 | 19.0 | 0.00 | 0.00 | 0.24 | 80 | 1004.6 |
| 20260830234142 | 58 | 225 | 15.0 | 17.0 | 0.00 | 0.00 | 0.24 | 81 | 1004.6 |
| 20260830233636 | 58 | 238 | 12.0 | 19.0 | 0.00 | 0.00 | 0.24 | 81 | 1004.5 |
| 20260830233131 | 58 | 234 | 13.0 | 21.0 | 0.00 | 0.00 | 0.24 | 81 | 1004.5 |
| 20260830232625 | 58 | 234 | 15.0 | 21.0 | 0.00 | 0.00 | 0.24 | 81 | 1004.4 |
| 20260830232120 | 58 | 279 | 17.0 | 17.0 | 0.00 | 0.00 | 0.24 | 81 | 1004.4 |
| 20260830231616 | 58 | 265 | 10.0 | 13.0 | 0.00 | 0.00 | 0.24 | 81 | 1004.4 |
| 20260830231110 | 58 | 247 | 15.0 | 15.0 | 0.00 | 0.00 | 0.24 | 81 | 1004.4 |
| 20260830230605 | 58 | 234 | 9.0 | 19.0 | 0.00 | 0.00 | 0.24 | 81 | 1004.4 |
| 20260830230059 | 58 | 229 | 7.0 | 10.0 | 0.00 | 0.00 | 0.24 | 81 | 1004.4 |
| 20260830225554 | 58 | 243 | 8.0 | 14.0 | 0.00 | 0.00 | 0.24 | 81 | 1004.4 |
| 20260830225050 | 58 | 225 | 9.0 | 17.0 | 0.00 | 0.00 | 0.24 | 81 | 1004.3 |
| 20260830224544 | 58 | 238 | 10.0 | 27.0 | 0.00 | 0.00 | 0.24 | 81 | 1004.4 |
| 20260830224039 | 58 | 256 | 14.0 | 15.0 | 0.00 | 0.00 | 0.24 | 81 | 1004.3 |
| 20260830223534 | 58 | 225 | 10.0 | 20.0 | 0.00 | 0.00 | 0.24 | 82 | 1004.5 |
| 20260830223028 | 58 | 225 | 15.0 | 17.0 | 0.00 | 0.00 | 0.24 | 81 | 1004.4 |
| 20260830222524 | 58 | 270 | 11.0 | 12.0 | 0.00 | 0.00 | 0.24 | 80 | 1004.3 |
| 20260830222018 | 58 | 229 | 11.0 | 18.0 | 0.00 | 0.00 | 0.24 | 81 | 1004.4 |
| 20260830221513 | 58 | 261 | 13.0 | 22.0 | 0.00 | 0.00 | 0.24 | 81 | 1004.3 |
| 20260830221008 | 58 | 270 | 10.0 | 16.0 | 0.00 | 0.00 | 0.24 | 81 | 1004.4 |
| 20260830220502 | 58 | 270 | 5.0 | 16.0 | 0.00 | 0.00 | 0.24 | 81 | 1004.4 |
| 20260830215958 | 58 | 229 | 10.0 | 13.0 | 0.00 | 0.00 | 0.24 | 81 | 1004.3 |
| 20260830215452 | 59 | 225 | 6.0 | 14.0 | 0.00 | 0.00 | 0.24 | 81 | 1004.3 |
| 20260830214947 | 59 | 229 | 10.0 | 14.0 | 0.00 | 0.00 | 0.24 | 81 | 1004.3 |
| 20260830214442 | 59 | 243 | 10.0 | 11.0 | 0.00 | 0.00 | 0.24 | 81 | 1004.3 |
| 20260830213936 | 59 | 256 | 13.0 | 13.0 | 0.00 | 0.00 | 0.24 | 81 | 1004.2 |
| 20260830213432 | 59 | 225 | 14.0 | 17.0 | 0.00 | 0.00 | 0.24 | 81 | 1004.1 |
| 20260830212926 | 59 | 243 | 10.0 | 19.0 | 0.00 | 0.00 | 0.24 | 82 | 1004.3 |
| 20260830212421 | 59 | 279 | 11.0 | 16.0 | 0.00 | 0.00 | 0.24 | 82 | 1004.2 |
| 20260830211916 | 59 | 243 | 16.0 | 16.0 | 0.00 | 0.00 | 0.24 | 82 | 1004.2 |
| 20260830211410 | 59 | 270 | 5.0 | 18.0 | 0.00 | 0.00 | 0.24 | 82 | 1004.1 |
| 20260830210906 | 59 | 234 | 13.0 | 15.0 | 0.00 | 0.00 | 0.24 | 82 | 1004.0 |
| 20260830210400 | 59 | 234 | 13.0 | 17.0 | 0.00 | 0.00 | 0.24 | 83 | 1004.0 |
| 20260830205855 | 59 | 270 | 12.0 | 18.0 | 0.00 | 0.00 | 0.24 | 83 | 1003.9 |
| 20260830205350 | 59 | 261 | 10.0 | 16.0 | 0.00 | 0.00 | 0.24 | 84 | 1003.9 |
| 20260830204844 | 59 | 247 | 15.0 | 15.0 | 0.00 | 0.00 | 0.24 | 84 | 1003.8 |
| 20260830204340 | 59 | 229 | 8.0 | 16.0 | 0.00 | 0.00 | 0.24 | 84 | 1003.7 |
| 20260830203834 | 59 | 243 | 10.0 | 14.0 | 0.00 | 0.00 | 0.24 | 84 | 1003.8 |
| 20260830203329 | 59 | 234 | 5.0 | 18.0 | 0.00 | 0.00 | 0.24 | 83 | 1003.7 |
| 20260830202824 | 59 | 243 | 8.0 | 23.0 | 0.00 | 0.00 | 0.24 | 84 | 1003.7 |
| 20260830202318 | 59 | 247 | 8.0 | 18.0 | 0.00 | 0.00 | 0.24 | 84 | 1003.6 |
| 20260830201814 | 59 | 261 | 18.0 | 20.0 | 0.00 | 0.00 | 0.24 | 84 | 1003.6 |
| 20260830201308 | 59 | 279 | 12.0 | 19.0 | 0.00 | 0.00 | 0.24 | 85 | 1003.5 |
| 20260830200803 | 59 | 279 | 18.0 | 18.0 | 0.00 | 0.00 | 0.24 | 86 | 1003.5 |
| 20260830200258 | 59 | 265 | 16.0 | 21.0 | 0.00 | 0.00 | 0.24 | 86 | 1003.3 |
| 20260830195752 | 59 | 261 | 10.0 | 23.0 | 0.00 | 0.00 | 0.24 | 86 | 1003.3 |
| 20260830195248 | 59 | 256 | 14.0 | 21.0 | 0.00 | 0.00 | 0.24 | 87 | 1003.3 |
| 20260830194742 | 59 | 238 | 9.0 | 13.0 | 0.00 | 0.00 | 0.24 | 87 | 1003.3 |
| 20260830194237 | 59 | 247 | 6.0 | 11.0 | 0.00 | 0.00 | 0.24 | 87 | 1003.2 |
| 20260830193226 | 59 | 270 | 10.0 | 19.0 | 0.00 | 0.00 | 0.24 | 89 | 1003.0 |
| 20260830192722 | 59 | 261 | 17.0 | 20.0 | 0.00 | 0.00 | 0.24 | 89 | 1002.8 |
| 20260830192216 | 59 | 256 | 10.0 | 20.0 | 0.00 | 0.00 | 0.24 | 90 | 1002.8 |
| 20260830191711 | 59 | 243 | 11.0 | 17.0 | 0.00 | 0.00 | 0.24 | 91 | 1002.9 |
| 20260830191206 | 59 | 261 | 9.0 | 11.0 | 0.00 | 0.00 | 0.24 | 91 | 1002.8 |
| 20260830190701 | 60 | 270 | 10.0 | 17.0 | 0.00 | 0.00 | 0.24 | 91 | 1002.6 |
| 20260830190156 | 60 | 0 | 4.0 | 13.0 | 0.00 | 0.00 | 0.24 | 92 | 1002.6 |
| 20260830185650 | 60 | 265 | 22.0 | 22.0 | 0.00 | 0.00 | 0.24 | 93 | 1002.5 |
| 20260830185145 | 60 | 243 | 11.0 | 14.0 | 0.00 | 0.00 | 0.24 | 92 | 1002.4 |
| 20260830184640 | 60 | 225 | 3.0 | 11.0 | 0.00 | 0.00 | 0.24 | 92 | 1002.4 |
| 20260830184135 | 60 | 165 | 3.0 | 17.0 | 0.00 | 0.00 | 0.24 | 93 | 1002.3 |
| 20260830183630 | 60 | 216 | 2.0 | 4.0 | 0.00 | 0.00 | 0.24 | 93 | 1002.2 |
| 20260830183124 | 60 | 270 | 0.0 | 2.0 | 0.00 | 0.00 | 0.24 | 93 | 1002.1 |
| 20260830182619 | 60 | 270 | 2.0 | 8.0 | 0.00 | 0.00 | 0.24 | 93 | 1002.2 |
| 20260830182114 | 60 | 4 | 2.0 | 5.0 | 0.00 | 0.00 | 0.24 | 93 | 1002.0 |
| 20260830181609 | 60 | 207 | 2.0 | 7.0 | 0.00 | 0.00 | 0.24 | 93 | 1001.9 |
| 20260830181104 | 60 | 315 | 1.0 | 5.0 | 0.00 | 0.00 | 0.24 | 92 | 1001.9 |
| 20260830180558 | 60 | 0 | 1.0 | 5.0 | 0.00 | 0.00 | 0.24 | 93 | 1001.9 |
| 20260830180053 | 60 | 72 | 2.0 | 6.0 | 0.00 | 0.00 | 0.24 | 93 | 1001.8 |
| 20260830175548 | 60 | 261 | 3.0 | 6.0 | 0.00 | 0.00 | 0.24 | 93 | 1001.8 |
| 20260830175043 | 60 | 288 | 2.0 | 7.0 | 0.00 | 0.00 | 0.24 | 94 | 1001.7 |
| 20260830174538 | 60 | 252 | 5.0 | 8.0 | 0.00 | 0.00 | 0.24 | 93 | 1001.6 |
| 20260830174032 | 60 | 94 | 1.0 | 5.0 | 0.00 | 0.00 | 0.24 | 94 | 1001.7 |
| 20260830173527 | 60 | 225 | 2.0 | 5.0 | 0.00 | 0.00 | 0.24 | 93 | 1001.3 |
| 20260830173022 | 60 | 288 | 3.0 | 4.0 | 0.00 | 0.00 | 0.24 | 93 | 1001.4 |
| 20260830172517 | 60 | 315 | 5.0 | 5.0 | 0.00 | 0.00 | 0.24 | 93 | 1001.2 |
| 20260830172012 | 60 | 256 | 0.0 | 7.0 | 0.00 | 0.00 | 0.24 | 93 | 1001.2 |
| 20260830171506 | 60 | 315 | 1.0 | 7.0 | 0.00 | 0.00 | 0.24 | 93 | 1001.2 |
| 20260830171001 | 60 | 202 | 2.0 | 10.0 | 0.00 | 0.00 | 0.24 | 93 | 1001.1 |
| 20260830170456 | 60 | 346 | 4.0 | 8.0 | 0.00 | 0.00 | 0.24 | 93 | 1001.1 |
| 20260830165951 | 60 | 15 | 7.0 | 10.0 | 0.00 | 0.00 | 0.24 | 93 | 1000.8 |
| 20260830165446 | 60 | 211 | 5.0 | 11.0 | 0.00 | 0.00 | 0.24 | 93 | 1000.8 |
| 20260830164940 | 60 | 180 | 1.0 | 7.0 | 0.00 | 0.00 | 0.24 | 93 | 1000.8 |
| 20260830164435 | 60 | 315 | 5.0 | 7.0 | 0.00 | 0.00 | 0.24 | 93 | 1000.7 |
| 20260830163930 | 60 | 153 | 2.0 | 9.0 | 0.00 | 0.00 | 0.24 | 93 | 1000.5 |
| 20260830163425 | 60 | 279 | 8.0 | 11.0 | 0.00 | 0.00 | 0.24 | 93 | 1000.4 |
| 20260830162920 | 60 | 40 | 2.0 | 8.0 | 0.00 | 0.00 | 0.24 | 93 | 1000.3 |
| 20260830162414 | 60 | 337 | 2.0 | 9.0 | 0.00 | 0.00 | 0.24 | 94 | 1000.2 |
| 20260830161909 | 61 | 328 | 2.0 | 10.0 | 0.00 | 0.00 | 0.24 | 94 | 1000.2 |
| 20260830161404 | 61 | 337 | 2.0 | 15.0 | 0.00 | 0.00 | 0.24 | 93 | 1000.1 |
| 20260830160859 | 61 | 31 | 9.0 | 14.0 | 0.00 | 0.00 | 0.24 | 94 | 1000.0 |
| 20260830160354 | 61 | 301 | 9.0 | 10.0 | 0.00 | 0.00 | 0.24 | 94 | 999.9 |
| 20260830155848 | 61 | 297 | 2.0 | 10.0 | 0.00 | 0.00 | 0.24 | 93 | 999.9 |
| 20260830155343 | 62 | 326 | 6.0 | 13.0 | 0.00 | 0.00 | 0.24 | 94 | 999.8 |
| 20260830154838 | 62 | 261 | 6.0 | 13.0 | 0.00 | 0.00 | 0.24 | 93 | 999.7 |
| 20260830154333 | 63 | 243 | 3.0 | 13.0 | 0.00 | 0.00 | 0.24 | 94 | 999.5 |
| 20260830153828 | 63 | 256 | 3.0 | 9.0 | 0.00 | 0.00 | 0.24 | 95 | 999.5 |
| 20260830153322 | 63 | 243 | 7.0 | 11.0 | 0.00 | 0.00 | 0.24 | 95 | 999.3 |
| 20260830152817 | 63 | 270 | 6.0 | 7.0 | 0.00 | 0.00 | 0.24 | 96 | 999.4 |
| 20260830152312 | 63 | 90 | 0.0 | 3.0 | 0.00 | 0.00 | 0.24 | 95 | 999.4 |
| 20260830151807 | 63 | 265 | 10.0 | 13.0 | 0.00 | 0.00 | 0.23 | 95 | 999.3 |
| 20260830151302 | 63 | 243 | 8.0 | 8.0 | 0.00 | 0.00 | 0.23 | 95 | 999.3 |
| 20260830150756 | 63 | 261 | 6.0 | 8.0 | 0.00 | 0.00 | 0.23 | 95 | 999.3 |
| 20260830150251 | 63 | 229 | 5.0 | 9.0 | 0.00 | 0.00 | 0.23 | 95 | 999.3 |
| 20260830145746 | 63 | 247 | 7.0 | 9.0 | 0.00 | 0.00 | 0.23 | 95 | 999.3 |
| 20260830145241 | 63 | 270 | 5.0 | 7.0 | 0.00 | 0.00 | 0.23 | 95 | 999.3 |
| 20260830144736 | 63 | 238 | 9.0 | 10.0 | 0.00 | 0.00 | 0.23 | 95 | 999.2 |
| 20260830144230 | 63 | 225 | 8.0 | 8.0 | 0.00 | 0.00 | 0.23 | 95 | 999.2 |
| 20260830143725 | 63 | 225 | 5.0 | 6.0 | 0.00 | 0.00 | 0.23 | 95 | 999.2 |
| 20260830143220 | 63 | 225 | 4.0 | 6.0 | 0.00 | 0.00 | 0.23 | 95 | 999.2 |
| 20260830142715 | 63 | 225 | 3.0 | 6.0 | 0.00 | 0.00 | 0.23 | 95 | 999.2 |
| 20260830142210 | 63 | 225 | 4.0 | 7.0 | 0.00 | 0.00 | 0.22 | 95 | 999.2 |
| 20260830141704 | 63 | 225 | 4.0 | 6.0 | 0.00 | 0.00 | 0.22 | 95 | 999.1 |
| 20260830141159 | 63 | 225 | 3.0 | 6.0 | 0.00 | 0.00 | 0.22 | 95 | 999.2 |
| 20260830140654 | 63 | 225 | 4.0 | 4.0 | 0.00 | 0.00 | 0.22 | 95 | 999.1 |
| 20260830140149 | 63 | 229 | 5.0 | 5.0 | 0.00 | 0.00 | 0.22 | 94 | 999.1 |
| 20260830135644 | 62 | 270 | 1.0 | 5.0 | 0.00 | 0.00 | 0.22 | 94 | 999.2 |
| 20260830135138 | 62 | 229 | 3.0 | 7.0 | 0.00 | 0.00 | 0.20 | 94 | 999.2 |
| 20260830134633 | 62 | 225 | 7.0 | 8.0 | 0.00 | 0.00 | 0.20 | 94 | 999.2 |
| 20260830134128 | 63 | 207 | 3.0 | 6.0 | 0.00 | 0.00 | 0.19 | 94 | 999.3 |
| 20260830133623 | 62 | 216 | 5.0 | 6.0 | 0.00 | 0.00 | 0.17 | 94 | 999.2 |
| 20260830133118 | 62 | 211 | 3.0 | 6.0 | 0.00 | 0.00 | 0.16 | 94 | 999.1 |
| 20260830132612 | 62 | 180 | 4.0 | 6.0 | 0.00 | 0.00 | 0.15 | 94 | 999.1 |
| 20260830132107 | 62 | 180 | 2.0 | 3.0 | 0.00 | 0.00 | 0.15 | 94 | 999.1 |
| 20260830131602 | 62 | 225 | 3.0 | 4.0 | 0.00 | 0.00 | 0.15 | 94 | 999.2 |
| 20260830131057 | 62 | 184 | 7.0 | 8.0 | 0.00 | 0.00 | 0.14 | 94 | 999.1 |
| 20260830130552 | 62 | 180 | 6.0 | 6.0 | 0.00 | 0.00 | 0.14 | 94 | 999.1 |
| 20260830130046 | 62 | 135 | 3.0 | 3.0 | 0.00 | 0.00 | 0.14 | 93 | 999.1 |
| 20260830125541 | 62 | 135 | 2.0 | 5.0 | 0.00 | 0.00 | 0.14 | 93 | 999.1 |
| 20260830125036 | 62 | 135 | 1.0 | 5.0 | 0.00 | 0.00 | 0.14 | 93 | 999.0 |
| 20260830124531 | 62 | 135 | 3.0 | 3.0 | 0.00 | 0.00 | 0.14 | 93 | 999.1 |
| 20260830124026 | 62 | 90 | 1.0 | 4.0 | 0.00 | 0.00 | 0.13 | 93 | 999.1 |
| 20260830123520 | 62 | 85 | 3.0 | 6.0 | 0.00 | 0.00 | 0.12 | 93 | 999.1 |
| 20260830123015 | 62 | 81 | 3.0 | 7.0 | 0.00 | 0.00 | 0.11 | 93 | 999.2 |
| 20260830122510 | 62 | 85 | 6.0 | 7.0 | 0.00 | 0.00 | 0.09 | 92 | 999.2 |
| 20260830122005 | 62 | 76 | 3.0 | 7.0 | 0.00 | 0.00 | 0.06 | 93 | 999.3 |
| 20260830121500 | 62 | 135 | 5.0 | 7.0 | 0.00 | 0.00 | 0.06 | 93 | 999.3 |
| 20260830120955 | 61 | 90 | 3.0 | 5.0 | 0.00 | 0.00 | 0.06 | 92 | 999.3 |
| 20260830120449 | 61 | 135 | 4.0 | 7.0 | 0.00 | 0.00 | 0.06 | 92 | 999.4 |
| 20260830115944 | 61 | 45 | 2.0 | 6.0 | 0.00 | 0.00 | 0.05 | 92 | 999.2 |
| 20260830115439 | 61 | 85 | 1.0 | 5.0 | 0.00 | 0.00 | 0.05 | 92 | 999.3 |
| 20260830114934 | 61 | 81 | 3.0 | 8.0 | 0.00 | 0.00 | 0.05 | 92 | 999.4 |
| 20260830114429 | 61 | 72 | 3.0 | 8.0 | 0.00 | 0.00 | 0.05 | 91 | 999.4 |
| 20260830113923 | 61 | 85 | 2.0 | 4.0 | 0.00 | 0.00 | 0.04 | 92 | 999.5 |
| 20260830113418 | 61 | 90 | 3.0 | 5.0 | 0.00 | 0.00 | 0.04 | 91 | 999.4 |
| 20260830112913 | 61 | 85 | 3.0 | 5.0 | 0.00 | 0.00 | 0.03 | 91 | 999.5 |
| 20260830112408 | 61 | 90 | 3.0 | 6.0 | 0.00 | 0.00 | 0.03 | 91 | 999.6 |
| 20260830111903 | 61 | 90 | 4.0 | 6.0 | 0.00 | 0.00 | 0.02 | 91 | 999.6 |
| 20260830111357 | 61 | 45 | 4.0 | 6.0 | 0.00 | 0.00 | 0.01 | 91 | 999.7 |
| 20260830110852 | 61 | 90 | 3.0 | 5.0 | 0.00 | 0.00 | 0.01 | 91 | 999.7 |
| 20260830110347 | 61 | 45 | 4.0 | 5.0 | 0.00 | 0.00 | 0.01 | 91 | 999.8 |
| 20260830105842 | 61 | 90 | 3.0 | 8.0 | 0.00 | 0.00 | 0.01 | 91 | 999.8 |
| 20260830105337 | 61 | 90 | 4.0 | 7.0 | 0.00 | 0.00 | 0.01 | 91 | 999.8 |
| 20260830104831 | 61 | 90 | 4.0 | 7.0 | 0.00 | 0.00 | 0.01 | 91 | 999.8 |
| 20260830104326 | 61 | 108 | 2.0 | 8.0 | 0.00 | 0.00 | 0.01 | 91 | 999.9 |
| 20260830103821 | 61 | 90 | 8.0 | 8.0 | 0.00 | 0.00 | 0.01 | 91 | 999.8 |
| 20260830103316 | 61 | 90 | 6.0 | 9.0 | 0.00 | 0.00 | 0.01 | 91 | 999.9 |
| 20260830102811 | 61 | 90 | 7.0 | 7.0 | 0.00 | 0.00 | 0.01 | 91 | 1000.0 |
| 20260830101800 | 60 | 135 | 7.0 | 10.0 | 0.00 | 0.00 | 0.01 | 91 | 1000.1 |
| 20260830101255 | 60 | 108 | 3.0 | 6.0 | 0.00 | 0.00 | 0.00 | 91 | 1000.2 |
| 20260830100750 | 60 | 135 | 4.0 | 8.0 | 0.00 | 0.00 | 0.00 | 91 | 1000.2 |
| 20260830100245 | 60 | 135 | 4.0 | 7.0 | 0.00 | 0.00 | 0.00 | 90 | 1000.3 |
| 20260830095740 | 60 | 135 | 3.0 | 8.0 | 0.00 | 0.00 | 0.00 | 90 | 1000.4 |
| 20260830095234 | 60 | 90 | 5.0 | 7.0 | 0.00 | 0.00 | 0.00 | 90 | 1000.4 |
| 20260830094729 | 60 | 99 | 6.0 | 8.0 | 0.00 | 0.00 | 0.00 | 89 | 1000.3 |
| 20260830094224 | 60 | 81 | 8.0 | 8.0 | 0.00 | 0.00 | 0.00 | 89 | 1000.4 |
| 20260830093719 | 60 | 90 | 7.0 | 12.0 | 0.00 | 0.00 | 0.00 | 89 | 1000.3 |
| 20260830093214 | 59 | 90 | 4.0 | 7.0 | 0.00 | 0.00 | 0.00 | 89 | 1000.4 |
| 20260830092708 | 59 | 85 | 6.0 | 6.0 | 0.00 | 0.00 | 0.00 | 89 | 1000.4 |
| 20260830092203 | 59 | 90 | 5.0 | 9.0 | 0.00 | 0.00 | 0.00 | 89 | 1000.5 |
| 20260830091658 | 59 | 90 | 2.0 | 5.0 | 0.00 | 0.00 | 0.00 | 88 | 1000.4 |
| 20260830091153 | 59 | 85 | 5.0 | 6.0 | 0.00 | 0.00 | 0.00 | 88 | 1000.5 |
| 20260830090648 | 59 | 117 | 2.0 | 7.0 | 0.00 | 0.00 | 0.00 | 87 | 1000.6 |
| 20260830090142 | 59 | 112 | 6.0 | 8.0 | 0.00 | 0.00 | 0.00 | 87 | 1000.6 |
| 20260830085637 | 59 | 135 | 3.0 | 5.0 | 0.00 | 0.00 | 0.00 | 87 | 1000.7 |
| 20260830085132 | 60 | 135 | 4.0 | 6.0 | 0.00 | 0.00 | 0.00 | 87 | 1000.7 |
| 20260830084627 | 60 | 135 | 3.0 | 6.0 | 0.00 | 0.00 | 0.00 | 86 | 1000.8 |
| 20260830084122 | 60 | 180 | 2.0 | 7.0 | 0.00 | 0.00 | 0.00 | 86 | 1000.8 |
| 20260830083616 | 60 | 135 | 6.0 | 7.0 | 0.00 | 0.00 | 0.00 | 86 | 1000.8 |
| 20260830082606 | 60 | 135 | 8.0 | 11.0 | 0.00 | 0.00 | 0.00 | 86 | 1000.8 |
| 20260830082101 | 60 | 171 | 7.0 | 12.0 | 0.00 | 0.00 | 0.00 | 86 | 1001.0 |
| 20260830081556 | 61 | 171 | 8.0 | 13.0 | 0.00 | 0.00 | 0.00 | 87 | 1000.8 |
| 20260830081050 | 61 | 139 | 10.0 | 17.0 | 0.00 | 0.00 | 0.05 | 87 | 1000.9 |
| 20260830080545 | 61 | 139 | 11.0 | 18.0 | 0.00 | 0.00 | 0.05 | 88 | 1000.9 |
| 20260830080040 | 61 | 135 | 7.0 | 13.0 | 0.00 | 0.00 | 0.05 | 88 | 1001.0 |
| 20260830075535 | 60 | 139 | 8.0 | 15.0 | 0.00 | 0.00 | 0.05 | 88 | 1001.0 |
| 20260830075030 | 60 | 144 | 11.0 | 15.0 | 0.00 | 0.00 | 0.05 | 88 | 1000.9 |
| 20260830074524 | 60 | 153 | 8.0 | 11.0 | 0.00 | 0.00 | 0.05 | 87 | 1000.9 |
| 20260830074019 | 61 | 139 | 9.0 | 13.0 | 0.00 | 0.00 | 0.05 | 87 | 1000.9 |
| 20260830073514 | 61 | 139 | 11.0 | 12.0 | 0.00 | 0.00 | 0.05 | 87 | 1001.0 |
| 20260830073009 | 61 | 139 | 12.0 | 14.0 | 0.00 | 0.00 | 0.05 | 87 | 1001.0 |
| 20260830072504 | 61 | 148 | 8.0 | 14.0 | 0.00 | 0.00 | 0.05 | 87 | 1001.1 |
| 20260830071958 | 61 | 180 | 13.0 | 15.0 | 0.00 | 0.00 | 0.05 | 88 | 1000.9 |
| 20260830071453 | 61 | 153 | 9.0 | 12.0 | 0.00 | 0.00 | 0.05 | 87 | 1001.0 |
| 20260830070948 | 61 | 148 | 11.0 | 13.0 | 0.00 | 0.00 | 0.05 | 87 | 1001.1 |
| 20260830070443 | 61 | 135 | 6.0 | 12.0 | 0.00 | 0.00 | 0.05 | 88 | 1001.0 |
| 20260830065938 | 62 | 153 | 18.0 | 18.0 | 0.00 | 0.00 | 0.05 | 88 | 1001.1 |
| 20260830065432 | 62 | 135 | 7.0 | 16.0 | 0.00 | 0.00 | 0.05 | 89 | 1001.1 |
| 20260830064927 | 62 | 180 | 10.0 | 21.0 | 0.00 | 0.00 | 0.05 | 89 | 1001.2 |
| 20260830064422 | 62 | 180 | 10.0 | 17.0 | 0.00 | 0.00 | 0.05 | 90 | 1001.1 |
| 20260830063917 | 62 | 180 | 12.0 | 12.0 | 0.00 | 0.00 | 0.05 | 90 | 1001.1 |
| 20260830063412 | 62 | 153 | 7.0 | 14.0 | 0.00 | 0.00 | 0.05 | 91 | 1001.0 |
| 20260830062906 | 62 | 180 | 8.0 | 15.0 | 0.00 | 0.00 | 0.05 | 91 | 1000.9 |
| 20260830062401 | 62 | 166 | 9.0 | 13.0 | 0.00 | 0.00 | 0.05 | 91 | 1000.9 |
| 20260830061857 | 62 | 180 | 8.0 | 14.0 | 0.00 | 0.00 | 0.05 | 91 | 1000.9 |
| 20260830061351 | 62 | 184 | 10.0 | 14.0 | 0.00 | 0.00 | 0.05 | 91 | 1001.0 |
| 20260830060846 | 62 | 180 | 15.0 | 20.0 | 0.00 | 0.00 | 0.05 | 91 | 1001.0 |
| 20260830060341 | 62 | 180 | 12.0 | 20.0 | 0.00 | 0.00 | 0.05 | 91 | 1001.0 |
| 20260830055835 | 62 | 180 | 11.0 | 18.0 | 0.00 | 0.00 | 0.05 | 91 | 1001.0 |
| 20260830055331 | 62 | 184 | 9.0 | 11.0 | 0.00 | 0.00 | 0.05 | 91 | 1001.1 |
| 20260830054825 | 62 | 180 | 8.0 | 16.0 | 0.00 | 0.00 | 0.05 | 91 | 1001.1 |
| 20260830054320 | 62 | 180 | 6.0 | 11.0 | 0.00 | 0.00 | 0.05 | 91 | 1001.0 |
| 20260830053815 | 62 | 180 | 10.0 | 13.0 | 0.00 | 0.00 | 0.05 | 92 | 1001.1 |
| 20260830053309 | 62 | 184 | 5.0 | 18.0 | 0.00 | 0.00 | 0.05 | 92 | 1001.2 |
| 20260830052805 | 62 | 193 | 9.0 | 16.0 | 0.00 | 0.00 | 0.05 | 92 | 1001.1 |
| 20260830052259 | 61 | 198 | 11.0 | 18.0 | 0.00 | 0.00 | 0.05 | 92 | 1001.1 |
| 20260830051754 | 61 | 198 | 9.0 | 19.0 | 0.00 | 0.00 | 0.05 | 92 | 1001.2 |
| 20260830051249 | 61 | 180 | 8.0 | 22.0 | 0.00 | 0.00 | 0.05 | 92 | 1001.2 |
| 20260830050743 | 61 | 193 | 9.0 | 16.0 | 0.00 | 0.00 | 0.05 | 91 | 1001.2 |
| 20260830050239 | 61 | 180 | 14.0 | 19.0 | 0.00 | 0.00 | 0.05 | 91 | 1001.2 |
| 20260830045733 | 61 | 193 | 8.0 | 19.0 | 0.00 | 0.00 | 0.05 | 91 | 1001.3 |
| 20260830045228 | 61 | 207 | 10.0 | 10.0 | 0.00 | 0.00 | 0.05 | 91 | 1001.2 |
| 20260830044723 | 60 | 216 | 7.0 | 9.0 | 0.00 | 0.00 | 0.05 | 91 | 1001.2 |
| 20260830044217 | 60 | 180 | 5.0 | 8.0 | 0.00 | 0.00 | 0.05 | 91 | 1001.1 |
| 20260830043713 | 60 | 180 | 4.0 | 5.0 | 0.00 | 0.00 | 0.05 | 91 | 1001.2 |
| 20260830043207 | 60 | 180 | 5.0 | 6.0 | 0.00 | 0.00 | 0.05 | 91 | 1001.3 |
| 20260830042702 | 60 | 202 | 4.0 | 7.0 | 0.00 | 0.00 | 0.05 | 91 | 1001.3 |
| 20260830042157 | 60 | 180 | 5.0 | 6.0 | 0.00 | 0.00 | 0.05 | 91 | 1001.4 |
| 20260830041651 | 60 | 180 | 2.0 | 4.0 | 0.00 | 0.00 | 0.05 | 91 | 1001.3 |
| 20260830041147 | 60 | 180 | 2.0 | 5.0 | 0.00 | 0.00 | 0.05 | 91 | 1001.4 |
| 20260830040642 | 59 | 180 | 2.0 | 5.0 | 0.00 | 0.00 | 0.05 | 90 | 1001.4 |
| 20260830040136 | 59 | 180 | 3.0 | 5.0 | 0.00 | 0.00 | 0.05 | 91 | 1001.4 |
| 20260830035631 | 59 | 193 | 4.0 | 5.0 | 0.00 | 0.00 | 0.05 | 90 | 1001.5 |
| 20260830035125 | 59 | 180 | 5.0 | 7.0 | 0.00 | 0.00 | 0.05 | 90 | 1001.5 |
| 20260830034621 | 59 | 180 | 3.0 | 6.0 | 0.00 | 0.00 | 0.05 | 90 | 1001.6 |
| 20260830034115 | 59 | 180 | 5.0 | 6.0 | 0.00 | 0.00 | 0.05 | 90 | 1001.6 |
| 20260830033610 | 59 | 180 | 5.0 | 7.0 | 0.00 | 0.00 | 0.05 | 90 | 1001.7 |
| 20260830033105 | 59 | 180 | 4.0 | 8.0 | 0.00 | 0.00 | 0.05 | 90 | 1001.6 |
| 20260830032559 | 59 | 184 | 4.0 | 8.0 | 0.00 | 0.00 | 0.05 | 90 | 1001.7 |
| 20260830032055 | 59 | 198 | 4.0 | 11.0 | 0.00 | 0.00 | 0.05 | 90 | 1001.7 |
| 20260830031549 | 59 | 202 | 4.0 | 7.0 | 0.00 | 0.00 | 0.05 | 90 | 1001.8 |
| 20260830031044 | 59 | 202 | 4.0 | 7.0 | 0.00 | 0.00 | 0.05 | 90 | 1001.8 |